Вернуться в каталог

STARLINK-34335

АктивенСвязьVLEO
NORAD 64362·PAYLOAD·🇺🇸 United States

Запущен Jun 13, 2025 с Vandenberg Space Force Base

Loading…

Ближайшие Пролёты (ближайшие 24 часа)

TLE

СвежийSource: CelesTrak SupGP

Эпоха: Sep 14, 2026, 20:51 UTC

1 64362C 25126U   26257.86923611  .00062530  00000+0  21761-2 0  2576
2 64362  70.0002 276.0085 0003419 266.9818 166.8605 15.29533894    19

Отслеживайте STARLINK-34335 в реальном времени с AllMySat

Download on the App Store